Date String (YYYY-MM-DD hh:mm:ss) UTC,Instrument flags,Ambient pressure (hPa),Sample flow (lpm),Bypass flow (lpm),Sample temperature (°C),Ambient temperature (°C),ASC tube jacket temperature (°C),LED temperature (°C),Box temperature (°C),Sample RH (%),Span deviation,Mass concentration (μg/m³),Mass concentration (μg/m³),Mass concentration (μg/m³)
DateTimeUTC,F1_M11,P_M11,Q1_M11,Q2_M11,T1_M11,T2_M11,T3_M11,T4_M11,T5_M11,U1_M11,ZSPAN_M11,X0_M11,X2_M11,X1_M11
2023-01-10 04:00:00,,0819.9,5.00,0.00,23.2,22.0,00.0,32.0,25.0,12.0,0000.0,0008.57,0003.17,0002.61
2023-01-10 04:01:00,,0820.0,5.00,0.00,23.3,22.0,00.0,32.0,25.0,12.3,0000.0,0007.23,0003.13,0002.56
2023-01-10 04:02:00,,0820.0,5.00,0.00,23.3,22.0,00.0,32.1,25.0,12.7,0000.0,0006.94,0003.12,0002.51
2023-01-10 04:03:00,,0820.0,5.00,0.00,23.3,22.0,00.0,32.1,25.0,13.0,0000.0,0006.78,0003.03,0002.44
2023-01-10 04:04:00,,0820.0,5.00,0.00,23.3,22.0,00.0,32.1,25.0,12.9,0000.0,0006.67,0002.95,0002.37
2023-01-10 04:05:00,,0820.0,5.01,0.00,23.3,22.0,00.0,32.1,25.1,12.6,0000.0,0006.75,0002.88,0002.32
2023-01-10 04:06:00,,0819.9,4.99,0.00,23.3,22.0,00.0,32.1,25.1,12.3,0000.0,0007.15,0002.89,0002.30
2023-01-10 04:07:00,,0819.9,4.99,0.00,23.3,21.9,00.0,32.1,25.1,12.3,0000.0,0007.14,0002.85,0002.27
2023-01-10 04:08:00,,0819.9,5.00,0.00,23.3,21.9,00.0,32.1,25.0,12.3,0000.0,0007.41,0002.81,0002.23
2023-01-10 04:09:00,,0819.9,5.00,0.00,23.2,21.8,00.0,32.1,25.0,12.2,0000.0,0007.50,0002.80,0002.21
2023-01-10 04:10:00,,0820.0,5.00,0.00,23.2,21.9,00.0,32.1,25.0,12.2,0000.0,0008.17,0002.80,0002.20
2023-01-10 04:11:00,,0820.0,5.00,0.00,23.2,21.9,00.0,32.1,25.0,12.3,0000.0,0008.10,0002.79,0002.21
2023-01-10 04:12:00,,0820.1,5.00,0.00,23.2,21.9,00.0,32.1,25.0,12.3,0000.0,0008.52,0002.88,0002.26
2023-01-10 04:13:00,,0820.1,5.00,0.00,23.2,21.9,00.0,32.1,25.0,12.3,0000.0,0009.02,0002.97,0002.32
2023-01-10 04:14:00,,0820.1,4.99,0.00,23.2,21.9,00.0,32.1,25.0,12.5,0000.0,0009.14,0003.08,0002.39
2023-01-10 04:15:00,,0820.1,4.99,0.00,23.2,21.9,00.0,32.1,25.0,12.6,0000.0,0009.41,0003.09,0002.41
2023-01-10 04:16:00,,0820.2,5.00,0.00,23.2,21.9,00.0,32.1,25.0,12.5,0000.0,0009.24,0003.14,0002.43
2023-01-10 04:17:00,,0820.2,5.00,0.00,23.3,21.9,00.0,32.1,25.0,12.4,0000.0,0009.77,0003.15,0002.44
2023-01-10 04:18:00,,0820.2,5.00,0.00,23.3,21.9,00.0,32.1,25.1,12.6,0000.0,0009.83,0003.17,0002.44
2023-01-10 04:19:00,,0820.2,5.01,0.00,23.3,21.9,00.0,32.1,25.1,12.8,0000.0,0009.61,0003.18,0002.44
2023-01-10 04:20:00,,0820.0,5.00,0.00,23.3,21.9,00.0,32.1,25.0,12.6,0000.0,0009.34,0003.13,0002.39
2023-01-10 04:21:00,,0819.9,4.99,0.00,23.3,21.9,00.0,32.1,25.1,12.5,0000.0,0008.45,0003.06,0002.33
2023-01-10 04:22:00,,0819.9,5.00,0.00,23.3,21.9,00.0,32.1,25.0,12.4,0000.0,0008.40,0003.03,0002.27
2023-01-10 04:23:00,,0819.9,5.01,0.00,23.2,21.9,00.0,32.1,25.0,12.3,0000.0,0008.33,0002.95,0002.21
2023-01-10 04:24:00,,0819.9,5.00,0.00,23.2,21.9,00.0,32.1,25.0,12.3,0000.0,0007.65,0002.84,0002.15
2023-01-10 04:25:00,,0819.9,5.00,0.00,23.2,21.9,00.0,32.1,24.9,12.4,0000.0,0007.58,0002.78,0002.10
2023-01-10 04:26:00,,0819.9,5.01,0.00,23.2,21.9,00.0,32.1,24.9,12.4,0000.0,0007.47,0002.75,0002.08
2023-01-10 04:27:00,,0819.9,5.00,0.00,23.2,21.9,00.0,32.1,25.0,12.5,0000.0,0007.09,0002.68,0002.05
2023-01-10 04:28:00,,0819.9,5.00,0.00,23.2,21.9,00.0,32.1,25.0,12.4,0000.0,0005.36,0002.60,0002.01
2023-01-10 04:29:00,,0820.0,4.99,0.00,23.2,21.9,00.0,32.1,24.9,12.3,0000.0,0005.38,0002.49,0001.96
2023-01-10 04:30:00,,0820.1,5.01,0.00,23.2,21.8,00.0,32.1,24.9,12.4,0000.0,0006.43,0002.38,0001.89
2023-01-10 04:31:00,,0820.2,4.99,0.00,23.2,21.8,00.0,32.1,24.9,12.4,0000.0,0006.64,0002.32,0001.85
2023-01-10 04:32:00,,0820.2,5.01,0.00,23.2,21.8,00.0,32.0,24.9,12.2,0000.0,0006.48,0002.24,0001.79
2023-01-10 04:33:00,,0820.2,5.00,0.00,23.2,21.8,00.0,32.0,24.9,12.1,0000.0,0006.27,0002.19,0001.75
2023-01-10 04:34:00,,0820.2,5.00,0.00,23.2,21.8,00.0,32.0,24.8,12.5,0000.0,0005.81,0002.13,0001.72
2023-01-10 04:35:00,,0820.2,5.01,0.00,23.1,21.7,00.0,32.0,24.8,12.9,0000.0,0005.95,0002.06,0001.68
2023-01-10 04:36:00,,0820.2,5.00,0.00,23.1,21.7,00.0,32.0,24.8,12.7,0000.0,0005.87,0002.00,0001.64
2023-01-10 04:37:00,,0820.2,5.00,0.00,23.1,21.7,00.0,32.0,24.8,12.3,0000.0,0005.67,0001.95,0001.57
2023-01-10 04:38:00,,0820.2,5.00,0.00,23.1,21.6,00.0,32.0,24.7,12.4,0000.0,0005.16,0001.91,0001.53
2023-01-10 04:39:00,,0820.2,5.00,0.00,23.1,21.6,00.0,32.0,24.7,12.3,0000.0,0005.03,0001.87,0001.48
2023-01-10 04:40:00,,0820.2,5.00,0.00,23.1,21.6,00.0,32.0,24.7,12.3,0000.0,0005.11,0001.86,0001.44
2023-01-10 04:41:00,,0820.2,4.99,0.00,23.1,21.6,00.0,32.0,24.7,12.4,0000.0,0003.84,0001.86,0001.41
2023-01-10 04:42:00,,0820.2,5.00,0.00,23.0,21.6,00.0,32.0,24.7,12.4,0000.0,0003.22,0001.83,0001.38
2023-01-10 04:43:00,,0820.3,4.99,0.00,23.0,21.6,00.0,32.0,24.8,12.6,0000.0,0003.34,0001.89,0001.39
2023-01-10 04:44:00,,0820.2,4.99,0.00,23.0,21.6,00.0,32.0,24.8,12.6,0000.0,0003.34,0001.89,0001.41
2023-01-10 04:45:00,,0820.1,5.00,0.00,23.0,21.6,00.0,32.0,24.8,12.6,0000.0,0003.16,0001.86,0001.40
2023-01-10 04:46:00,,0820.0,5.02,0.00,23.0,21.6,00.0,32.0,24.8,12.8,0000.0,0002.87,0001.84,0001.38
2023-01-10 04:47:00,,0820.0,5.01,0.00,23.0,21.7,00.0,32.0,24.8,12.8,0000.0,0003.78,0001.82,0001.36
2023-01-10 04:48:00,,0819.9,5.00,0.00,23.0,21.7,00.0,32.0,24.8,12.7,0000.0,0005.26,0001.84,0001.37
2023-01-10 04:49:00,,0819.9,5.00,0.00,23.0,21.7,00.0,31.9,24.8,12.5,0000.0,0005.27,0001.84,0001.38
2023-01-10 04:50:00,,0819.9,5.00,0.00,23.0,21.6,00.0,31.9,24.7,12.5,0000.0,0005.24,0001.82,0001.37
2023-01-10 04:51:00,,0820.0,4.99,0.00,23.0,21.6,00.0,31.9,24.7,12.3,0000.0,0005.11,0001.79,0001.38
2023-01-10 04:52:00,,0819.9,5.00,0.00,23.0,21.6,00.0,31.9,24.6,12.5,0000.0,0005.09,0001.77,0001.39
2023-01-10 04:53:00,,0820.0,5.00,0.00,23.0,21.6,00.0,31.9,24.7,12.4,0000.0,0005.25,0001.80,0001.41
2023-01-10 04:54:00,,0820.0,5.00,0.00,23.0,21.6,00.0,31.9,24.6,12.3,0000.0,0005.21,0001.77,0001.40
2023-01-10 04:55:00,,0820.0,5.00,0.00,23.0,21.5,00.0,31.9,24.6,12.3,0000.0,0005.10,0001.72,0001.38
2023-01-10 04:56:00,,0820.0,5.00,0.00,22.9,21.5,00.0,31.9,24.6,11.9,0000.0,0005.10,0001.71,0001.38
2023-01-10 04:57:00,,0820.0,5.00,0.00,22.9,21.5,00.0,31.9,24.6,11.8,0000.0,0005.00,0001.68,0001.37
2023-01-10 04:58:00,,0820.0,5.00,0.00,22.9,21.5,00.0,31.9,24.7,11.7,0000.0,0004.76,0001.70,0001.37
2023-01-10 04:59:00,,0820.1,5.00,0.00,22.9,21.5,00.0,31.9,24.7,11.7,0000.0,0002.85,0001.64,0001.35
